Location: Huntsville
(34.7300°N, 86.5860°W)
Time: 10:34:10
(UTC-05:00)

Envisat - Visible Passes

Search period start: 04 October 2024 00:00
Search period end: 14 October 2024 00:00
Orbit: 762 x 764 km, 98.3° (Epoch: 04 October)

Date Brightness Start Highest point End Pass type
(mag) Time Alt. Az. Time Alt. Az. Time Alt. Az.
04 Oct 5.2 03:53:38 10° NNE 03:54:56 18° NNE 03:54:56 18° NNE visible
05 Oct 5.8 03:16:30 10° NNE 03:16:53 12° NNE 03:16:53 12° NNE visible
05 Oct 5.0 04:56:04 10° NNW 04:57:01 14° NNW 04:57:01 14° NNW visible
06 Oct 5.1 04:17:46 10° N 04:18:59 17° N 04:18:59 17° N visible
07 Oct 5.5 03:40:12 10° NNE 03:40:56 14° NNE 03:40:56 14° NNE visible
08 Oct 5.1 04:42:12 10° N 04:43:01 14° NNW 04:43:01 14° NNW visible
09 Oct 5.3 04:04:11 10° N 04:04:58 15° N 04:04:58 15° N visible
10 Oct 5.9 03:26:51 10° NNE 03:26:54 10° NNE 03:26:54 10° NNE visible
11 Oct 5.3 04:28:26 10° N 04:28:58 13° N 04:28:58 13° N visible
12 Oct 5.6 03:50:40 10° NNE 03:50:55 11° NNE 03:50:55 11° NNE visible
